• Join FlightAware (Why Join?)
  • Login
  • US Flag 
08:54PM EST


 

Airport Tracker/Info


-or-


 

Live Flight TrackerFlight Track Log ✈ N444WR ✈ 14-Jun-2013 ✈ KARG - KFYE

Flight Track Log - Related Links

Times and Time Zones

All times are in EDT time to prevent confusion due to time zone crossing. See the N444WR flight status page for this flight to view local times or setup timezone preferences in your user account.

Time Position Orientation Groundspeed Altitude Reporting Facility
EDT Latitude Longitude Course Direction KTS MPH feet Rate Location/Type
10:43AM 36.0475 -90.7933 122° Southeast 167 192 3,600  Level Memphis Center
10:44AM 36.0225 -90.7547 129° Southeast 162 186 4,400 780 Climbing Memphis Center
10:45AM 36.0017 -90.7186 125° Southeast 138 159 5,200 780 Climbing Memphis Center
10:46AM 35.9789 -90.6828 128° Southeast 131 151 6,000 720 Climbing Memphis Center
10:47AM 35.9561 -90.6442 126° Southeast 131 151 6,700 420 Climbing Memphis Center
10:48AM 35.9810 -90.6808 122° Southeast  Level Estimated
10:48AM 35.9311 -90.6006 125° Southeast 137 158 6,900  Level Memphis Center
10:49AM 35.9042 -90.5544 126° Southeast 147 169 7,000  Climbing Memphis Center
10:50AM 35.8769 -90.5081 126° Southeast 160 184 7,000 -60 Level Memphis Center
10:51AM 35.8458 -90.4619 130° Southeast 167 192 6,900 -60 Descending Memphis Center
10:52AM 35.8208 -90.4133 122° Southeast 167 192 6,900  Level Memphis Center
10:53AM 35.7936 -90.3672 126° Southeast 172 198 6,900  Level Memphis Center
10:54AM 35.7644 -90.3211 128° Southeast 172 198 6,900 -300 Level Memphis Center
10:55AM 35.7331 -90.2700 127° Southeast 177 204 6,400 -540 Descending Memphis Center
10:56AM 35.7019 -90.2164 126° Southeast 177 204 5,900 -300 Descending Memphis Center
10:57AM 35.6767 -90.1653 121° Southeast 177 204 5,800  Descending Memphis Center
10:58AM 35.6453 -90.1117 126° Southeast 177 204 5,900  Climbing Memphis Center
10:59AM 35.6161 -90.0633 127° Southeast 177 204 5,900  Level Memphis Center
11:00AM 35.5847 -90.0125 127° Southeast 177 204 5,900 -60 Level Memphis Center
11:01AM 35.5533 -89.9642 129° Southeast 177 204 5,800  Descending Memphis Center
11:02AM 35.5239 -89.9106 124° Southeast 177 204 5,900  Climbing Memphis Center
11:03AM 35.4944 -89.8622 127° Southeast 177 204 5,900  Level Memphis Center
11:04AM 35.4650 -89.8142 127° Southeast 177 204 5,900  Level Memphis Center
11:05AM 35.4336 -89.7633 127° Southeast 177 204 5,900  Level Memphis Center
11:06AM 35.4061 -89.7203 128° Southeast 177 204 5,900 -420 Level Memphis Center
11:07AM 35.3500 -89.6333 128° Southeast 186 214 4,900 -780 Descending KMEM
11:08AM 35.3333 -89.5833 112° Southeast 182 209 3,900 -1,080 Descending KMEM